Regional Weather Roundup
Issued by NWS

Home | Current Version | Previous Version | Text Only | Print | Product List | Glossary Off
Versions: 1 2 3 4 5 6 7 8 9 10 11 12 13 14 15 16 17 18 19 20 21 22 23 24 25 26 27 28 29 30 31 32 33 34 35 36 37 38 39 40 41 42 43 44 45 46 47 48 49 50

000
ASUS43 KDTX 220101
RWRMI
MICHIGAN HOURLY REGIONAL WEATHER ROUNDUP
NATIONAL WEATHER SERVICE DETROIT/PONTIAC MI
900 PM EDT TUE OCT 21 2014

NOTE: "FAIR" INDICATES FEW OR NO CLOUDS BELOW 12,000 FEET WITH NO
SIGNIFICANT WEATHER AND/OR OBSTRUCTION TO VISIBILITY.

MIZ047>049-052>055-059>063-066>070-074>076-081>083-220200-
SOUTHEAST LOWER MICHIGAN

CITY           SKY/WX    TMP DP  RH WIND       PRES   REMARKS
ADRIAN         CLOUDY    44  36  73 NE13      30.20R
ALMA           CLEAR     39  35  85 CALM      30.24R
ANN ARBOR      CLOUDY    44  34  67 N10       30.18R
BAD AXE        CLOUDY    43  37  78 N10G17    30.22R
CARO           CLOUDY    43  36  75 CALM      30.22R
DETROIT CITY   CLOUDY    47  36  65 N15G26    30.17R
DETROIT        CLOUDY    45  36  70 N15G22    30.18R
FLINT          CLOUDY    45  35  68 N12       30.22R
GROSSE ILE     CLOUDY    46  37  71 N15G22    30.15R
HILLSDALE      MOCLDY    43  36  78 N7        30.18S
HOWELL         CLOUDY    42  35  75 N5        30.20R

CITY           SKY/WX    TMP DP  RH WIND       PRES   REMARKS
JACKSON        MOCLDY    41  35  79 N5        30.20R
LAMBERTVILLE   CLOUDY    45  36  70 N5        30.18R
LANSING        CLEAR     40  33  76 NE5       30.22R
LAPEER         CLOUDY    43  35  73 N9G16     30.20R
MASON          CLEAR     40  35  82 N3        30.21R
MONROE         CLOUDY    45  37  76 N10       30.16R
MT. CLEMENS    CLOUDY    45  38  78 N16       30.14R
PONTIAC        CLOUDY    43  34  70 N16       30.17R
PORT HOPE        N/A     46  37  71 N18G28    30.21R
PORT HURON     CLOUDY    45  41  87 N9        30.15R
TRI CITIES     CLEAR     41  35  79 NE8       30.24R
TROY           CLOUDY    45  36  69 N14G21    30.19R
SAGINAW HB     CLEAR     43  34  70 NE9       30.23R
$$
MIZ043>046-050>051-056>058-064>065-071>073-077>080-220200-
SOUTHWEST LOWER MICHIGAN

CITY           SKY/WX    TMP DP  RH WIND       PRES   REMARKS
BATTLE CREEK   CLEAR     40  34  79 CALM      30.21R
BENTON HARBOR  CLEAR     39  37  92 CALM      30.22R
BIG RAPIDS     CLEAR     41  36  80 CALM      30.23R
COLDWATER      CLEAR     44  36  75 CALM      30.20R
FREMONT        FAIR      41  29  62 N5        30.22R
HOLLAND        CLEAR     41  36  82 CALM      30.22R
GRAND RAPIDS   CLEAR     41  35  79 CALM      30.21R
IONIA          FAIR      41  35  78 E6        30.22R
KALAMAZOO      CLEAR     40  34  79 CALM      30.21R
LUDINGTON      CLEAR     39  36  87 CALM      30.25R
MARSHALL       CLEAR     38  35  86 CALM      30.21R
MOUNT PLEASANT CLEAR     41  32  70 NE5       30.23R
MUSKEGON       CLEAR     45  36  70 N8        30.23R
SOUTH HAVEN    CLEAR     38  37  94 CALM      30.22R
$$
MIZ016>042-220200-
NORTHERN LOWER MICHIGAN

CITY           SKY/WX    TMP DP  RH WIND       PRES   REMARKS
ALPENA         CLEAR     34  29  82 N3        30.27R
BEAVER ISLAND  CLEAR     38  33  82 CALM      30.28S
BELLAIRE       CLEAR     36  33  90 CALM      30.28R
CADILLAC       CLEAR     37  34  89 N3        30.23R
CHARLEVOIX     CLEAR     40  32  74 E5        30.30R
FRANKFORT      CLEAR     42  33  70 CALM      30.26R
GAYLORD        CLEAR     35  27  72 NE6       30.26R WCI  30
GRAYLING       CLEAR     32  29  88 CALM      30.27R
HARBOR SPRINGS CLEAR     35  30  83 N3        30.28R
HOUGHTON LAKE  CLEAR     36  27  69 NE7       30.26R WCI  30
MANISTEE       CLEAR     41  30  65 NE6       30.26R
OSCODA         CLOUDY    39  32  75 N7        30.24R WCI  34
PELLSTON       CLEAR     30  27  88 W5        30.29R WCI  25
TRAVERSE CITY  CLEAR     42  33  70 N7        30.26R
$$
MIZ007>008-015-220200-
EASTERN UPPER MICHIGAN

CITY           SKY/WX    TMP DP  RH WIND       PRES   REMARKS
KINROSS        CLEAR     37  30  75 NE6       30.28R WCI  33
MACKINAC ISLAN CLEAR     40  33  75 N3        30.28R
NEWBERRY       CLEAR     34  31  88 N3        30.28S
S. S. MARIE    CLEAR     39  28  64 NE6       30.29R WCI  35
MUNISING         N/A     37  30  75 SE5       30.30R WCI  33
$$
MIZ004>006-011>014-085-220200-
CENTRAL UPPER MICHIGAN

CITY           SKY/WX    TMP DP  RH WIND       PRES   REMARKS
MANISTIQUE     CLEAR     33  30  88 N5        30.29R WCI  28
ESCANABA       CLEAR     37  28  70 N6        30.29R WCI  33
MENOMINEE      CLEAR     43  30  61 NE8       30.27R
SAWYER-GWINN   CLEAR     32  28  86 NW3       30.28S
$$
MIZ001>003-009>011-084-220200-
WESTERN UPPER MICHIGAN

CITY           SKY/WX    TMP DP  RH WIND       PRES   REMARKS
IRON MOUNTAIN  CLEAR     39  28  64 CALM      30.26R
HOUGHTON       CLEAR     36  31  82 E8        30.26S WCI  30
COPPER HARBOR    N/A     36  31  82 S5        30.29S WCI  32
IRONWOOD       CLEAR     36  34  93 CALM      30.20S
$$

ABBREVIATIONS USED IN REMARKS
   TC - TEMPERATURE IN CELSIUS
  WCI - WIND CHILL INDEX
   HX - HEAT INDEX
  VSB - VISIBILITY




USA.gov is the U.S. government's official web portal to all federal, state and local government web resources and services.